Wind_Speed
31 33 33 34 36 36 38 41 41 40 40 40 37 39 34 32 36 42 48 48 61 51
31 32 34 34 34 34 35 38 41 38 40 39 36 39 36 34 39 44 48 50 54 47
32 31 33 35 35 34 35 37 39 40 39 42 38 40 35 33 35 39 42 45 46 47
32 32 32 34 36 35 35 36 37 39 39 39 38 38 36 33 34 38 38 40 43 45
32 32 32 35 36 35 35 35 36 35 36 37 38 37 35 33 32 30 31 36 42 44
32 33 32 35 37 35 33 35 34 34 34 35 35 34 30 35 31 30 27 32 39 44
31 32 33 35 36 35 33 32 33 33 34 34 33 31 30 34 32 32 32 30 36 38
30 31 31 35 36 36 33 32 31 32 33 34 34 33 34 34 38 33 37 36 35 40
30 31 32 35 37 37 35 32 31 31 33 34 34 34 34 36 36 36 35 42 39 40
30 31 33 35 37 37 36 34 32 31 32 33 35 36 37 36 32 25 30 36 44 38
31 32 33 35 37 36 36 34 33 33 32 33 35 36 37 36 29 23 24 28 38 50
30 32 33 35 37 35 37 34 34 32 33 34 35 36 39 37 32 25 22 24 28 39
28 29 32 33 34 34 35 34 36 34 33 34 37 37 39 37 36 31 26 15 15 31
25 28 30 31 32 34 36 36 39 39 38 37 39 40 42 37 35 35 30 24 15 12
Wind_Direction
338 338 340 341 337 333 333 333 332 328 324 322 319 310 297 288 284 269 258 253 236 245
340 341 341 341 338 334 330 331 332 328 323 320 320 314 300 290 288 276 266 253 245 240
345 341 342 342 340 337 332 334 331 330 323 320 317 310 300 296 289 280 262 253 246 235
344 342 342 343 341 338 335 335 333 333 329 326 323 316 304 294 284 278 265 257 236 230
342 343 343 344 343 340 338 335 335 333 335 331 327 322 316 307 283 282 273 246 238 237
342 343 344 345 345 343 340 335 335 337 335 334 331 327 310 304 282 265 266 267 256 246
342 344 345 346 345 344 342 338 336 338 338 335 335 335 320 308 299 269 255 252 262 257
342 344 344 346 346 345 345 343 342 340 339 341 339 343 335 320 299 283 258 249 247 253
345 347 347 347 347 347 347 349 347 345 343 345 345 345 340 334 315 281 269 248 242 246
348 349 348 348 349 349 351 351 352 348 349 350 353 349 346 342 328 312 278 257 237 239
350 350 349 348 351 351 354 354 354 353 351 353 357 355 351 350 338 326 297 276 240 234
351 349 350 349 351 355 355 358 359 357 357 358 358 2 358 354 351 345 329 295 248 233
350 352 351 350 354 357 357 2 2 3 4 4 1 6 4 1 356 355 356 350 276 237
355 356 354 354 356 358 359 3 4 6 8 7 7 6 6 7 2 356 355 4 344 272
Height
1462 1455 1449 1442 1436 1433 1427 1420 1415 1410 1406 1402 1398 1395 1393 1389 1388 1388 1386 1386 1390 1394
1459 1452 1445 1438 1434 1429 1424 1416 1411 1405 1399 1394 1389 1387 1384 1379 1376 1375 1373 1371 1375 1383
1454 1448 1442 1435 1429 1425 1419 1412 1405 1398 1392 1384 1379 1376 1373 1368 1366 1361 1359 1360 1365 1375
1449 1444 1437 1432 1426 1420 1415 1408 1401 1394 1386 1379 1372 1368 1363 1358 1356 1351 1349 1350 1355 1363
1445 1438 1433 1427 1422 1416 1410 1405 1397 1390 1383 1376 1367 1361 1356 1351 1346 1342 1342 1343 1347 1352
1439 1434 1429 1423 1418 1412 1406 1400 1393 1386 1379 1371 1363 1356 1349 1343 1339 1336 1333 1335 1338 1341
1437 1431 1426 1421 1415 1408 1402 1396 1389 1383 1376 1368 1359 1351 1344 1335 1330 1328 1326 1326 1329 1331
1435 1428 1423 1419 1413 1406 1399 1392 1384 1378 1372 1364 1356 1347 1338 1330 1321 1318 1317 1318 1320 1321
1431 1426 1420 1417 1410 1402 1394 1387 1381 1375 1368 1360 1352 1343 1334 1325 1315 1308 1307 1308 1311 1313
1429 1423 1418 1415 1407 1398 1390 1383 1377 1372 1365 1357 1349 1339 1328 1317 1307 1298 1297 1297 1301 1305
1428 1421 1417 1413 1405 1397 1389 1381 1375 1369 1363 1355 1347 1337 1325 1314 1304 1295 1289 1285 1287 1294
1428 1421 1414 1412 1403 1395 1388 1381 1374 1368 1361 1353 1344 1334 1323 1311 1300 1291 1282 1278 1275 1279
1428 1421 1415 1411 1402 1396 1389 1382 1375 1367 1360 1352 1342 1332 1323 1312 1300 1290 1280 1274 1271 1269
1427 1420 1416 1411 1404 1396 1389 1382 1374 1366 1359 1351 1342 1332 1323 1312 1301 1292 1282 1270 1264 1262